Miscellaneous Local Product
Issued by NWS North Platte, NE

Home | Current Version | Previous Version | Graphics & Text | Print | Product List | Glossary On
Versions: 1 2 3 4 5 6 7 8 9 10 11 12 13 14 15 16 17 18 19 20 21 22 23 24 25 26 27 28 29 30 31 32 33 34 35 36 37 38 39 40 41 42 43 44 45 46 47 48 49 50
000
AXUS43 KLBF 260210
MISLBF


WESTERN AND NORTH CENTRAL NEBRASKA HOURLY WEATHER ROUNDUP
NATIONAL WEATHER SERVICE NORTH PLATTE NE
800 PM CST WED FEB 25 2015

***STATIONS NOT REPORTING VARIABLES SUCH AS SKY/WEATHER OR
PRESSURE ARE PROVIDED BY THE NEBRASKA DEPARTMENT OF
ROADS...RAWS...AND APRS NETWORKS...AND ARE NOT UNDER
NATIONAL WEATHER SERVICE QUALITY CONTROL***

...OBSERVATIONS IN AND NEAR THE EASTERN PANHANDLE OF NEBRASKA...

CITY           SKY/WX    TMP DP  RH WIND       PRES   REMARKS
PINE RIDGE     LGT SNOW  15   9  76 N13       30.24R WCI   1
CHADRON        LGT SNOW  17  12  80 NE17      30.24R WCI   1
ALLIANCE       LGT SNOW  19  14  81 N24       30.13R WCI   2
SIDNEY         CLOUDY    25  19  78 E12       30.06R WCI  14
WHITECLAY        N/A     30  23  74 N13         N/A  WCI  20
CRESCENT LAKE    N/A     20  13  72 NE15G24     N/A  WCI   6
LISCO            N/A     26  17  67 S20         N/A  WCI  13
BIG SPRINGS      N/A     26  18  70 NE12        N/A  WCI  16
LEWELLEN         N/A     21  10  63 NE13        N/A  WCI   9
$$

...OBSERVATIONS IN NORTH CENTRAL NEBRASKA...

CITY           SKY/WX    TMP DP  RH WIND       PRES   REMARKS
VALENTINE      CLOUDY    13   6  74 N14G25    30.24R WCI  -2
THEDFORD       FLURRIES  15  10  77 N15G24    30.18R WCI   0
AINSWORTH      CLOUDY    12   6  75 N18G26    30.22R WCI  -6
O`NEILL        MOCLDY    11   6  80 N15G23    30.23R WCI  -6
ORD            LGT SNOW  16   7  67 N21G30    30.19R WCI  -1
BROKEN BOW     CLOUDY    16   7  67 N28G35    30.16R WCI  -4
BROWNLEE         N/A     11   6  79 N22         N/A  WCI  -8
SPRINGVIEW       N/A     11   4  73 NW7G14      N/A  WCI   0
BREWSTER         N/A     18  12  79 N17         N/A  WCI   2
ROSE             N/A     19  15  86 N15         N/A  WCI   5
NEWPORT          N/A     17  13  86 S9          N/A  WCI   6
SARGENT          N/A     15   9  76 N5G15       N/A  WCI   8
COMSTOCK         N/A     22  13  69 N21         N/A  WCI   6
CHAMBERS         N/A     11   2  66 N10         N/A  WCI  -2
EWING            N/A     11   7  83 N7G16       N/A  WCI   0
$$

...OBSERVATIONS IN SOUTHWEST NEBRASKA AND FAR NORTHEAST COLORADO...

CITY           SKY/WX    TMP DP  RH WIND       PRES   REMARKS
WRAY           FAIR      30  22  70 N8        30.08R WCI  22
IMPERIAL         N/A     24  14  65 NE13      30.10R WCI  12
OGALLALA       CLOUDY    24  15  67 NE17      30.12R WCI  10
NORTH PLATTE   MOCLDY    17   9  70 N17G26    30.16R WCI   1
MCCOOK         FAIR      23  13  65 N13       30.14R WCI  11
LEXINGTON      MOCLDY    20  11  69 N18G26    30.15R WCI   4
PAXTON           N/A     20  13  74 NE12        N/A  WCI   8
BRADY            N/A     16   8  69 E3          N/A
GOTHENBURG       N/A     16   8  70 N12         N/A  WCI   3
CALLAWAY         N/A     14   9  79 N16         N/A  WCI  -2
$$

...NORTH PLATTE AREA...

CITY           SKY/WX    TMP DP  RH WIND       PRES   REMARKS
AIRPORT        MOCLDY    17   9  70 N17G26    30.16R WCI   1
DOWNTOWN         N/A     17   9  71 N5G14       N/A  WCI  10
$$

...SOME WEATHER OBSERVATIONS FROM AROUND THE REGION...

CITY           SKY/WX    TMP DP  RH WIND       PRES   REMARKS
DENVER         LGT SNOW  27  25  92 NE13      30.06R FOG     WCI  16
LARAMIE        CLOUDY    19  16  88 W6        30.00R WCI  11
CHEYENNE       LGT SNOW  22  16  78 N25G39    30.02R WCI   5
SCOTTSBLUFF    MOCLDY    24  18  77 N25G35    30.11R WCI   8
RAPID CITY     LGT SNOW  12   9  87 N14       30.27R FOG     WCI  -3
PIERRE         CLOUDY    10   2  69 N10       30.35R WCI  -4
WINNER         CLOUDY    11   1  64 N16       30.29R WCI  -6
SIOUX FALLS    FAIR       4  -2  76 N14       30.24R WCI -14
OMAHA          FLURRIES  18  10  71 N26G33    30.14R WCI  -1
GRAND ISLAND   CLOUDY    18   9  68 N23G31    30.16R WCI   0
KANSAS CITY    CLOUDY    27  21  78 N30G37    29.91R WCI  11
WICHITA        CLOUDY    34  24  67 N25G38    29.95R WCI  21
HAYS           FAIR      27  10  50 N20G33    30.07R WCI  13
LIBERAL        FAIR      41  28  60 NE20G30   29.98R
GOODLAND       FAIR      29  21  72 N15       30.05R WCI  18
$$



USA.gov is the U.S. government's official web portal to all federal, state and local government web resources and services.